This demonstration page uses our WeatherBlox Daily Observations layout. Learn more.

Left ArrowRight Arrow

Hourly Observations for May 13, 2017

Temp ( °F °C ) Dew Point ( °F °C ) Humidity (%) Winds ( mph kmh ) Pressure ( in mb ) Visibility ( mi km ) Precip ( " mm )
12:56 am 00:56 Clear 49 9.6 47 8.4 92 92 Calm 29.96 1015 10 16 0.00 0.00
1:56 am 01:56 Clear 46 7.9 45 7.1 95 95 Calm 29.97 1015 10 16 0.00 0.00
2:56 am 02:56 Clear 47 8.6 46 7.7 94 94 Calm 29.96 1015 10 16 0.00 0.00
3:56 am 03:56 Clear 46 7.5 44 6.6 94 94 Calm 29.96 1015 10 16 0.00 0.00
4:56 am 04:56 Clear 46 7.5 44 6.9 96 96 Calm 29.96 1015 10 16 0.00 0.00
5:56 am 05:56 Clear 45 7.4 44 6.7 95 95 Calm 29.98 1015 10 16 0.00 0.00
6:56 am 06:56 Sunny 47 8.2 45 7.3 94 94 Calm 29.98 1015 10 16 0.00 0.00
7:56 am 07:56 Sunny 55 13 48 9.1 77 77 Calm 29.97 1015 10 16 0.00 0.00
8:56 am 08:56 Sunny 61 15.9 50 9.8 67 67 Calm 29.99 1016 10 16 0.00 0.00
9:56 am 09:56 Sunny 68 19.9 47 8.6 48 48 SSW 6 9 29.96 1015 10 16 0.00 0.00
10:56 am 10:56 Sunny 73 22.5 41 5 32 32 S 13 20 29.95 1014 10 16 0.00 0.00
11:56 am 11:56 Sunny 74 23.6 40 4.5 29 29 S 14 22 29.93 1014 10 16 0.00 0.00
12:56 pm 12:56 Sunny 77 24.8 38 3.4 25 25 SSW 12 19 29.91 1013 10 16 0.00 0.00
1:56 pm 13:56 Sunny 78 25.6 39 4.1 25 25 S 18 30 29.89 1012 10 16 0.00 0.00
2:56 pm 14:56 Sunny 80 26.4 40 4.2 24 24 S 21 33 29.86 1011 10 16 0.00 0.00
3:56 pm 15:56 Sunny 80 26.6 40 4.4 24 24 S 15 24 29.83 1010 10 16 0.00 0.00
4:56 pm 16:56 Sunny 80 26.7 40 4.4 24 24 S 18 30 29.81 1010 10 16 0.00 0.00
5:56 pm 17:56 Sunny 80 26.6 43 6.1 27 27 S 18 30 29.79 1009 10 16 0.00 0.00
6:56 pm 18:56 Sunny 78 25.8 44 6.9 30 30 S 17 28 29.77 1008 10 16 0.00 0.00
7:56 pm 19:56 Sunny 76 24.5 46 8 35 35 S 15 24 29.77 1008 10 16 0.00 0.00
8:56 pm 20:56 Clear 71 21.7 48 8.9 44 44 S 9 15 29.77 1008 10 16 0.00 0.00
9:56 pm 21:56 Clear 69 20.5 49 9.4 49 49 S 8 13 29.78 1009 10 16 0.00 0.00
10:56 pm 22:56 Clear 67 19.4 50 9.8 54 54 S 7 11 29.78 1009 10 16 0.00 0.00
11:56 pm 23:56 Clear 67 19.2 51 10.5 57 57 S 10 17 29.78 1009 10 16 0.00 0.00

Powered by AerisWeather